User: anonymous   Login
Location: Bothwell
(42.3833°S, 147.0000°E)
Time: 23:56:17
(UTC+10:00)
Language:

AO-109 - Orbit

View from above orbital plane
View from above orbital plane
View from above satellite
View from above satellite

Ground track
Ground track

The orbit data is extracted from the following two-line orbital elements,

1 47311U 21002C   23271.86478210  .00042879  00000-0  87914-3 0  9994
2 47311  60.6804  18.1716 0015819 357.4864   2.6151 15.45651880150270
Epoch (UTC): 28 September 2023 20:45:17
Eccentricity: 0.0015819
inclination: 60.6804°
perigee height: 419 km
apogee height: 440 km
right ascension of ascending node: 18.1716°
argument of perigee: 357.4864°
revolutions per day: 15.45651880
mean anomaly at epoch: 2.6151°
orbit number at epoch: 15027

The dashed part of the orbit path shows where the satellite is in the earth's shadow,  

DLR